This demonstration page uses our WeatherBlox Daily Observations layout. Learn more.

38.88101, -77.10428

Hourly Observations for June 29, 2017

Temp ( °F °C ) Dew Point ( °F °C ) Humidity (%) Winds ( mph kmh ) Pressure ( in mb ) Visibility ( mi km ) Precip ( " mm )
12:52 am 00:52 Clear 70 21.1 59 15 68 68 SSW 14 22 30.15 1021 10 16.09344 0 0
1:52 am 01:52 Clear 69 20.6 58 14.4 68 68 S 13 20 30.15 1021 10 16.09344 0 0
2:52 am 02:52 Clear 69 20.6 59 15 70 70 S 10 17 30.15 1021 10 16.09344 0 0
3:52 am 03:52 Partly Cloudy 68 20 59 15 73 73 SSW 10 17 30.15 1021 10 16.09344 0 0
4:52 am 04:52 Mostly Cloudy with Light Rain 67 19.4 59 15 76 76 S 8 13 30.15 1021 10 16.09344 0.001 0.001
5:52 am 05:52 Mostly Cloudy 66 18.9 60 15.6 81 81 SSW 7 11 30.15 1021 10 16.09344 0 0
6:52 am 06:52 Mostly Cloudy 68 20 61 16.1 78 78 SSW 10 17 30.15 1021 10 16.09344 0 0
7:52 am 07:52 Mostly Cloudy 70 21.1 62 16.7 76 76 S 10 17 30.15 1021 10 16.09344 0 0
8:52 am 08:52 Cloudy 74 23.3 62 16.7 67 67 S 13 20 30.15 1021 10 16.09344 0 0
9:52 am 09:52 Cloudy 78 25.6 60 15.6 54 54 SSW 14 22 30.15 1021 10 16.09344 0 0
10:52 am 10:52 Cloudy 80 26.7 59 15 49 49 SSW 15 24 30.12 1020 10 16.09344 0 0
11:52 am 11:52 Cloudy 83 28.3 61 16.1 48 48 SSW 13 20 30.12 1020 10 16.09344 0 0
12:52 pm 12:52 Cloudy 85 29.4 62 16.7 46 46 S 7 11 30.09 1019 10 16.09344 0 0
1:52 pm 13:52 Cloudy 87 30.6 65 18.3 48 48 S 13 20 30.06 1018 10 16.09344 0 0
2:52 pm 14:52 Mostly Cloudy 88 31.1 65 18.3 46 46 S 14 22 30.06 1018 10 16.09344 0 0
3:52 pm 15:52 Mostly Cloudy 89 31.7 63 17.2 42 42 S 13 20 30.06 1018 10 16.09344 0 0
4:52 pm 16:52 Mostly Cloudy 90 32.2 63 17.2 41 41 S 14 22 30.03 1017 10 16.09344 0 0
5:52 pm 17:52 Mostly Cloudy 88 31.1 66 18.9 48 48 S 20 31 30.03 1017 10 16.09344 0 0
6:52 pm 18:52 Mostly Cloudy 86 30 68 20 55 55 S 16 26 30.03 1017 10 16.09344 0 0
7:52 pm 19:52 Mostly Cloudy 85 29.4 66 18.9 53 53 S 14 22 30.03 1017 10 16.09344 0 0
8:52 pm 20:52 Mostly Cloudy 83 28.3 65 18.3 55 55 S 15 24 30.03 1017 10 16.09344 0 0
9:52 pm 21:52 Partly Cloudy 82 27.8 64 17.8 55 55 SSW 16 26 30.03 1017 10 16.09344 0 0
10:52 pm 22:52 Clear 81 27.2 63 17.2 54 54 S 16 26 30.03 1017 10 16.09344 0 0
11:52 pm 23:52 Clear 79 26.1 64 17.8 60 60 S 16 26 30.06 1018 10 16.09344 0 0

Powered by AerisWeather